Wind_Speed
41 41 40 40 40 39 39 38 38 38 37 37 36 36 35 35 34 34 34 34 35 35 35 35 36 36 37 37 38 38 39 39 40 40 41 41 41 41 42 43 43 44 45
41 41 41 40 40 40 39 39 39 38 38 38 38 38 37 37 37 37 37 37 37 37 37 37 37 38 38 38 39 40 40 41 41 42 42 42 42 42 43 44 44 45 46
42 42 42 41 41 40 40 40 40 40 40 39 39 39 39 39 39 39 39 39 39 39 39 39 39 39 40 40 40 41 41 42 42 43 44 44 44 43 43 44 45 46 47
43 43 42 42 41 41 41 41 41 41 41 41 40 40 40 40 40 40 40 40 40 40 40 40 40 40 41 41 41 42 42 43 43 44 45 45 45 45 44 45 46 46 47
43 43 43 42 42 42 42 42 42 42 42 41 41 41 41 41 41 40 41 41 41 41 41 41 42 42 42 42 42 43 44 44 44 44 45 45 46 46 47 46 46 47 48
44 43 43 43 43 43 44 43 43 42 42 41 42 41 41 41 41 41 41 42 42 42 42 43 43 44 44 44 44 44 44 44 45 45 45 46 46 48 48 48 48 48 49
45 44 43 44 44 44 44 43 43 43 42 42 42 42 42 42 42 42 42 43 43 43 43 44 45 45 45 45 46 45 45 45 46 46 47 47 48 49 50 51 51 51 51
45 45 44 44 44 44 44 44 44 43 43 43 43 43 43 43 44 44 44 44 44 44 44 45 46 46 46 46 46 46 46 47 47 47 48 48 49 50 51 52 53 53 51
45 45 44 44 45 45 45 45 45 45 44 44 45 44 44 45 45 45 44 44 45 45 46 46 47 47 47 46 46 46 47 47 48 48 48 48 49 50 51 52 52 53 52
46 45 45 44 45 45 45 45 45 45 45 45 45 46 45 46 46 45 46 46 46 47 47 47 47 47 47 47 47 47 47 47 47 48 49 49 50 51 51 51 52 52 53
44 44 45 44 45 45 45 45 45 45 46 46 46 46 46 46 46 46 46 47 47 48 47 48 47 47 47 47 47 47 47 47 47 48 49 49 50 50 50 50 52 53 53
42 43 44 44 44 45 45 45 45 46 46 46 46 46 46 46 46 47 47 48 48 47 47 47 47 47 47 47 47 47 47 48 48 48 48 48 49 49 50 51 52 53 52
41 42 43 44 44 44 45 45 45 45 46 46 46 46 46 46 46 47 47 47 47 46 46 46 46 47 47 47 47 48 48 48 48 48 47 48 49 50 50 51 52 53 52
42 42 43 44 44 44 44 44 45 45 45 46 46 45 45 46 46 46 47 47 46 45 45 45 46 46 46 46 47 47 48 48 48 48 47 48 49 50 51 52 53 52 51
41 42 43 43 44 44 44 44 44 44 45 45 45 45 45 45 45 46 46 46 45 45 45 45 46 46 46 46 47 47 47 48 48 48 48 48 49 50 51 51 50 49 48
41 42 42 43 44 44 45 45 45 45 44 44 44 44 45 45 44 44 45 45 45 45 45 46 46 46 46 46 47 46 47 47 47 48 48 48 49 49 49 49 47 46 45
40 41 42 43 43 44 44 44 45 45 44 44 43 43 43 43 43 43 43 44 44 45 45 46 46 46 46 46 46 46 46 46 47 47 48 48 48 47 47 46 45 44 44
39 40 41 41 42 43 43 44 44 43 43 43 42 42 42 42 42 42 42 42 43 44 45 45 45 45 46 46 46 46 46 47 47 47 47 46 46 45 44 44 43 43 43
37 38 40 41 41 42 43 43 43 43 43 42 42 43 43 43 43 42 42 42 43 43 44 44 44 44 44 45 45 46 47 47 47 46 45 45 44 44 43 42 42 41 41
36 36 37 39 40 41 41 42 42 42 42 43 43 43 44 43 43 43 43 43 43 43 43 43 44 44 44 45 45 46 46 46 45 44 44 44 44 43 42 41 41 40 40
36 37 37 37 38 39 40 41 41 42 42 42 42 43 43 43 43 43 43 43 42 42 42 42 43 44 44 44 45 44 44 44 43 42 42 42 42 41 41 41 40 39 39
36 36 36 37 37 37 38 39 39 40 41 41 42 42 43 43 43 43 42 41 41 41 41 41 42 42 42 42 42 42 42 41 41 40 40 39 39 39 38 38 38 37 36
35 35 36 36 37 37 37 38 38 39 39 40 40 41 41 41 41 40 40 40 40 40 40 41 42 41 41 40 40 40 40 40 39 38 37 37 36 36 36 36 36 35 35
36 35 35 35 35 36 37 38 38 39 39 39 39 39 39 39 39 39 39 39 40 40 40 40 40 39 38 38 38 38 38 37 36 35 35 35 35 35 34 33 33 32 32
35 35 36 36 36 36 37 37 38 38 38 38 38 38 38 38 38 38 38 39 39 39 38 38 37 36 36 36 36 36 35 34 34 34 34 34 34 33 31 30 30 30 29
33 34 35 35 35 36 36 37 38 38 38 38 37 37 37 38 38 38 38 38 37 37 36 35 35 34 34 33 33 33 33 33 34 34 34 33 32 30 29 29 28 28 27
Wind_Direction
238 238 238 239 240 242 243 244 245 246 247 248 250 251 253 255 258 260 262 263 265 268 270 272 273 274 275 276 277 278 279 279 279 280 280 281 282 283 284 285 286 286 287
238 239 239 240 241 242 243 244 245 246 248 249 250 251 253 256 258 261 262 264 266 268 269 271 273 274 275 276 277 278 279 280 280 281 280 280 280 281 283 284 285 287 288
239 239 240 240 241 241 242 244 245 247 248 249 250 252 254 256 258 261 263 265 266 268 270 271 272 274 275 276 277 278 279 280 281 281 282 282 282 282 283 285 287 288 288
239 240 241 241 241 242 242 244 246 247 249 250 251 253 255 257 259 261 263 265 267 268 270 271 272 274 275 276 277 279 280 280 281 282 283 283 284 284 284 286 287 288 289
240 240 241 241 242 243 244 245 246 247 249 250 251 253 255 257 260 262 264 265 267 268 270 271 273 274 275 276 278 279 280 281 281 282 283 284 284 286 286 287 287 288 290
240 241 241 242 243 244 245 245 246 247 249 250 252 254 256 258 261 263 265 266 268 269 270 272 273 274 275 276 277 279 280 280 281 282 283 284 285 286 288 288 288 289 291
240 241 242 243 244 244 245 246 246 248 249 251 253 255 257 259 262 264 265 267 268 269 271 272 274 275 275 276 277 278 279 279 281 283 284 285 286 288 289 289 290 291 292
241 242 242 243 244 245 246 246 247 249 250 252 254 256 258 260 263 265 266 268 269 270 272 273 274 275 276 277 277 278 279 280 281 283 284 285 286 287 289 290 291 292 292
240 241 242 243 244 245 246 248 249 250 251 253 255 257 259 261 263 265 266 268 270 271 272 273 275 275 276 277 277 278 279 280 281 283 284 285 287 287 289 290 291 293 293
240 241 242 243 244 245 246 248 249 251 252 254 256 257 259 261 263 265 267 269 270 272 273 274 275 275 275 276 277 278 279 281 282 283 284 285 286 288 288 290 292 293 294
240 241 242 243 244 245 247 249 250 251 253 255 257 258 260 261 263 265 267 269 271 272 273 274 274 274 275 276 277 278 279 280 281 283 284 286 287 288 288 289 291 293 294
241 240 241 242 243 245 247 248 250 252 253 254 256 258 260 262 264 265 267 269 271 272 272 273 274 274 275 276 276 277 279 280 281 282 283 285 287 288 288 289 291 293 293
241 240 240 241 242 244 246 248 250 252 254 255 257 259 261 263 265 266 267 268 270 271 271 273 274 275 276 276 276 277 279 281 281 282 284 285 287 288 288 289 291 292 292
241 241 241 241 243 244 246 248 250 252 254 256 258 260 262 263 265 266 268 269 269 270 272 273 274 275 276 277 277 277 278 280 281 282 285 286 288 289 289 290 291 291 291
241 241 242 242 244 245 246 248 250 252 254 256 257 259 261 264 265 267 268 269 269 270 272 273 274 276 277 278 277 278 279 281 282 283 285 287 288 290 291 290 290 291 291
243 243 244 244 245 246 247 248 250 252 254 256 258 260 262 264 265 267 268 268 268 270 272 274 275 277 278 278 278 278 280 281 283 284 285 287 288 290 290 290 290 291 291
244 244 245 245 247 249 249 249 250 251 253 255 257 260 262 264 265 266 267 268 269 271 272 274 275 276 277 278 278 279 280 281 283 285 286 287 288 289 288 288 289 290 291
244 245 245 246 247 248 249 250 250 251 253 255 257 260 262 263 264 266 267 269 271 272 273 274 275 276 277 277 277 278 280 282 284 286 287 287 288 288 288 289 289 290 291
245 245 246 247 246 247 248 249 250 252 253 254 257 259 261 263 264 265 267 270 271 272 273 274 275 277 277 278 277 279 281 282 284 285 287 287 287 288 288 289 289 289 289
246 246 247 247 247 246 246 247 249 252 254 255 258 260 262 263 264 266 268 270 271 272 273 274 275 277 278 278 279 281 282 283 283 285 286 286 287 287 288 288 288 288 288
246 247 248 248 248 247 247 247 250 252 254 257 259 260 262 263 265 267 269 271 271 272 273 275 276 277 278 279 280 282 282 283 283 285 285 285 286 287 287 287 287 287 287
245 247 248 248 249 250 250 251 252 253 255 258 260 261 261 263 264 266 268 270 271 272 273 274 276 277 278 279 279 280 282 283 284 284 285 286 288 288 287 287 287 287 287
246 247 248 249 250 251 251 252 253 255 257 259 260 261 261 263 265 266 267 269 270 271 273 275 276 276 276 276 277 279 282 283 283 283 285 286 288 288 288 288 288 287 287
248 248 249 250 250 251 252 253 255 257 259 259 260 261 261 263 265 267 268 270 271 273 274 276 276 275 275 276 277 279 281 281 281 282 284 286 288 289 290 289 289 288 288
249 250 251 252 253 254 255 256 258 259 261 262 263 263 263 264 265 268 270 271 272 274 276 276 275 275 275 276 278 279 279 279 280 282 284 285 287 288 289 289 288 288 288
252 253 253 253 254 256 257 258 260 261 262 263 263 264 265 267 268 268 269 270 271 273 274 275 276 276 276 277 278 278 278 279 280 282 283 284 285 286 287 288 288 288 289
Height
5737 5741 5745 5749 5752 5755 5759 5762 5765 5767 5770 5772 5774 5775 5777 5778 5780 5781 5782 5783 5783 5783 5784 5784 5783 5783 5783 5782 5781 5781 5780 5779 5778 5777 5776 5775 5774 5773 5771 5769 5767 5764 5762
5729 5733 5737 5741 5744 5748 5751 5754 5757 5759 5761 5764 5766 5768 5769 5771 5772 5773 5774 5775 5775 5775 5776 5776 5775 5775 5774 5773 5773 5772 5771 5769 5768 5767 5766 5766 5767 5764 5762 5759 5757 5754 5751
5720 5724 5728 5732 5736 5739 5742 5745 5748 5750 5753 5755 5757 5759 5761 5763 5764 5765 5766 5766 5766 5767 5767 5767 5767 5766 5765 5764 5763 5762 5761 5760 5758 5757 5755 5754 5754 5754 5753 5750 5747 5744 5741
5711 5715 5719 5723 5727 5730 5733 5736 5739 5742 5744 5747 5749 5751 5753 5754 5755 5756 5757 5757 5758 5758 5758 5758 5757 5757 5756 5755 5754 5752 5751 5750 5748 5747 5745 5743 5741 5741 5741 5740 5736 5732 5729
5702 5706 5710 5714 5717 5721 5724 5727 5730 5733 5735 5738 5740 5742 5744 5745 5746 5747 5748 5748 5749 5749 5748 5748 5747 5747 5746 5745 5743 5742 5741 5739 5738 5736 5735 5733 5731 5728 5727 5727 5725 5722 5718
5693 5697 5701 5704 5708 5712 5715 5718 5721 5724 5726 5729 5731 5733 5734 5736 5737 5738 5738 5739 5739 5739 5738 5738 5737 5736 5735 5734 5733 5731 5730 5729 5727 5726 5724 5722 5720 5718 5715 5713 5712 5710 5707
5683 5688 5691 5695 5698 5702 5705 5708 5712 5714 5717 5719 5722 5723 5725 5726 5727 5728 5728 5729 5729 5728 5728 5727 5727 5726 5725 5723 5722 5721 5719 5718 5716 5715 5713 5711 5708 5706 5702 5700 5698 5696 5694
5674 5678 5681 5685 5689 5692 5696 5699 5702 5705 5707 5710 5712 5713 5715 5716 5717 5718 5718 5718 5718 5718 5717 5716 5716 5714 5713 5712 5711 5709 5708 5707 5705 5703 5701 5699 5697 5694 5690 5687 5684 5682 5681
5663 5667 5671 5675 5679 5682 5686 5689 5692 5695 5697 5699 5701 5703 5705 5706 5706 5707 5707 5707 5707 5707 5706 5705 5704 5703 5702 5700 5699 5698 5697 5695 5694 5692 5690 5687 5685 5682 5678 5675 5671 5667 5665
5653 5657 5661 5665 5669 5672 5676 5679 5681 5684 5687 5689 5691 5692 5694 5695 5695 5696 5696 5696 5695 5695 5694 5693 5692 5691 5690 5689 5688 5687 5685 5684 5682 5680 5678 5675 5673 5670 5666 5663 5659 5654 5651
5642 5647 5651 5655 5658 5662 5665 5668 5671 5673 5676 5678 5680 5681 5683 5683 5684 5684 5684 5684 5684 5683 5682 5681 5680 5679 5678 5677 5676 5675 5673 5672 5670 5668 5666 5664 5661 5658 5654 5651 5647 5643 5639
5632 5636 5640 5644 5648 5651 5655 5657 5660 5663 5665 5667 5669 5670 5671 5672 5672 5673 5672 5672 5671 5670 5669 5668 5668 5667 5666 5665 5663 5662 5661 5660 5658 5656 5654 5652 5649 5646 5643 5639 5636 5632 5627
5622 5626 5630 5634 5637 5641 5644 5647 5649 5652 5654 5656 5658 5659 5660 5660 5661 5661 5660 5660 5659 5658 5658 5657 5656 5655 5653 5652 5651 5650 5649 5647 5646 5644 5642 5640 5637 5634 5631 5628 5624 5620 5616
5612 5616 5620 5623 5627 5630 5633 5636 5639 5641 5643 5645 5646 5647 5648 5649 5649 5649 5649 5648 5647 5647 5646 5645 5644 5643 5641 5640 5639 5638 5637 5636 5634 5633 5631 5628 5625 5622 5619 5616 5612 5608 5604
5602 5606 5609 5613 5616 5620 5623 5626 5628 5630 5632 5634 5635 5636 5637 5637 5638 5637 5637 5636 5636 5635 5635 5634 5632 5631 5630 5628 5627 5626 5625 5624 5623 5621 5619 5616 5613 5610 5606 5603 5599 5596 5592
5592 5595 5599 5602 5606 5609 5612 5615 5617 5620 5622 5623 5625 5626 5626 5626 5626 5626 5625 5625 5624 5624 5623 5622 5621 5620 5618 5616 5615 5614 5614 5613 5611 5610 5608 5605 5602 5598 5594 5590 5587 5584 5580
5582 5585 5588 5592 5595 5598 5601 5604 5606 5609 5611 5613 5614 5615 5615 5615 5615 5615 5614 5614 5613 5613 5612 5611 5610 5608 5607 5605 5604 5603 5602 5601 5600 5598 5596 5593 5590 5586 5583 5580 5576 5573 5570
5572 5575 5578 5581 5584 5587 5590 5593 5595 5598 5600 5602 5603 5604 5604 5605 5605 5605 5604 5603 5603 5602 5601 5600 5599 5597 5596 5594 5593 5592 5592 5591 5589 5586 5584 5581 5578 5575 5572 5569 5566 5563 5560
5562 5565 5568 5571 5574 5576 5579 5582 5584 5587 5589 5591 5592 5593 5594 5594 5594 5594 5594 5593 5592 5591 5590 5589 5588 5586 5585 5583 5582 5581 5580 5579 5578 5575 5573 5570 5567 5564 5561 5558 5555 5553 5550
5552 5555 5558 5561 5563 5566 5568 5571 5574 5576 5578 5580 5581 5582 5583 5583 5583 5583 5583 5582 5581 5580 5579 5578 5577 5576 5574 5573 5571 5570 5569 5568 5567 5564 5561 5558 5555 5553 5549 5547 5545 5543 5540
5543 5545 5548 5551 5553 5556 5558 5561 5563 5565 5567 5569 5570 5571 5571 5572 5572 5572 5572 5571 5571 5570 5569 5568 5567 5565 5563 5562 5560 5558 5557 5556 5555 5553 5550 5548 5545 5542 5539 5537 5535 5533 5530
5534 5536 5539 5541 5544 5546 5548 5551 5553 5555 5557 5558 5559 5560 5560 5561 5561 5561 5561 5560 5560 5559 5558 5557 5556 5554 5552 5551 5549 5547 5546 5544 5543 5542 5540 5537 5535 5532 5530 5527 5525 5523 5521
5524 5527 5530 5532 5534 5536 5539 5541 5543 5544 5546 5547 5548 5549 5549 5549 5550 5550 5550 5550 5549 5548 5547 5546 5545 5544 5542 5540 5538 5537 5536 5534 5533 5532 5530 5528 5525 5523 5520 5518 5516 5514 5512
5515 5518 5520 5523 5525 5527 5529 5531 5533 5534 5536 5537 5537 5538 5539 5539 5539 5539 5539 5539 5538 5538 5537 5535 5534 5533 5532 5530 5528 5527 5526 5525 5523 5522 5521 5519 5517 5514 5511 5509 5507 5505 5503
5506 5509 5511 5513 5515 5517 5519 5521 5522 5524 5525 5526 5527 5527 5528 5528 5529 5529 5528 5528 5528 5527 5526 5525 5524 5523 5522 5520 5519 5517 5516 5515 5514 5513 5512 5510 5508 5506 5503 5501 5499 5497 5495
5497 5499 5501 5504 5505 5507 5509 5510 5512 5513 5514 5516 5516 5517 5518 5518 5518 5519 5519 5518 5517 5517 5516 5515 5514 5513 5512 5511 5510 5508 5507 5506 5505 5504 5502 5501 5499 5497 5495 5494 5492 5490 5488